Location: *
(33.8649°S, 62.1526°E)
Time: 17:49:50
(UTC+00:00)

Hubble Space Telescope - Visible Passes

Search period start: 22 April 2021 00:00
Search period end: 02 May 2021 00:00
Orbit: 535 x 539 km, 28.5° (Epoch: 21 April)

Date Brightness Start Highest point End Pass type
(mag) Time Alt. Az. Time Alt. Az. Time Alt. Az.
23 Apr 3.2 01:47:54 10° NNW 01:50:45 18° NNE 01:53:38 10° ENE visible
24 Apr 2.9 01:36:35 10° NNW 01:39:45 21° NNE 01:42:57 10° ENE visible
25 Apr 2.7 01:25:22 10° NW 01:28:46 25° NNE 01:32:12 10° ENE visible
26 Apr 2.4 01:14:32 12° NW 01:17:48 28° NNE 01:21:22 10° ENE visible
27 Apr 2.2 01:04:28 18° NW 01:06:50 31° N 01:10:32 10° ENE visible
28 Apr 2.0 00:54:21 26° NNW 00:55:52 34° N 00:59:39 10° ENE visible
29 Apr 1.7 00:44:11 34° NNW 00:44:54 36° N 00:48:45 10° ENE visible
30 Apr 1.7 00:33:59 38° N 00:33:59 38° N 00:37:50 10° ENE visible
01 May 2.0 00:23:46 35° NNE 00:23:46 35° NNE 00:26:53 10° ENE visible
01 May 2.2 02:00:12 10° WNW 02:03:50 29° NNW 02:07:28 10° NE visible
